RH
17 15 13 12 11 9 9 9 8 8 7 6 5 5 4 4 4 3 3 3 2 2 2 3 4 4 5 5 4 4 4 4 3 2 3 3 3 3 3 3 2 3 3 3 4 6 6 9 12 13 15 16 17 17 17 17 17 16 15 16 15 14 15 14 13 14 14 14 15 16 16 17 16 17 18 18 19 19 19 20 20 20 20 20 20 21 22 23
12 11 10 9 9 8 8 8 7 7 6 5 4 4 4 3 3 3 3 3 3 3 4 5 6 7 7 6 5 4 3 4 3 2 3 2 2 2 3 3 4 5 6 7 9 11 13 16 18 18 19 18 17 17 16 15 14 14 13 14 14 13 13 14 13 14 14 15 15 16 17 17 17 17 18 18 19 20 20 20 20 20 21 21 22 23 23 23
11 10 9 9 8 8 8 7 6 5 5 4 4 3 3 3 3 3 4 4 5 6 7 8 9 9 9 8 6 5 4 3 3 3 3 3 4 5 6 7 8 10 12 14 15 18 19 21 21 21 19 18 17 15 15 14 13 13 13 13 14 14 14 15 15 15 14 15 16 16 17 18 19 19 19 20 20 21 21 21 22 22 23 23 24 24 24 24
11 10 9 8 7 7 6 6 5 5 4 4 4 3 4 4 4 5 6 7 8 9 10 11 11 11 11 10 9 8 8 7 6 7 7 8 9 11 12 13 15 16 18 19 21 22 22 22 21 19 17 15 14 13 13 13 13 14 14 14 14 14 15 15 16 16 15 16 16 16 17 18 20 20 21 21 21 21 21 21 22 23 24 25 25 25 25 25
8 7 7 6 6 6 6 5 5 4 4 4 4 4 5 6 6 7 9 10 11 12 13 14 15 15 15 14 14 13 13 12 13 13 14 15 16 17 18 19 20 21 21 21 21 21 20 20 17 15 14 13 13 13 14 13 14 14 13 13 13 14 15 15 15 15 16 15 15 16 16 17 18 20 21 21 20 20 20 22 23 24 25 24 24 24 24 23
6 7 7 7 7 6 5 5 4 4 4 5 6 6 7 8 9 10 12 14 16 18 19 20 21 21 20 20 19 18 18 18 19 19 19 20 21 22 22 22 22 21 21 20 18 17 16 15 13 13 12 13 13 13 13 13 13 13 12 12 12 13 13 13 13 14 14 14 14 14 14 15 17 18 19 19 20 21 22 23 24 24 24 24 25 24 22 21
8 8 7 6 5 5 4 4 5 5 6 7 7 8 10 11 13 16 18 21 23 24 25 25 25 25 24 23 23 22 22 22 21 22 22 22 22 22 22 21 21 19 18 17 15 14 14 13 13 13 13 13 13 12 12 11 12 12 12 12 12 12 12 12 12 12 13 12 13 13 14 14 16 17 17 18 19 21 22 23 23 24 25 26 25 23 21 20
6 5 5 5 5 5 6 6 7 7 8 9 10 12 15 18 21 23 25 26 27 28 28 28 28 27 25 24 24 23 24 24 23 23 23 22 21 20 20 19 17 16 15 14 13 13 14 14 14 14 13 13 12 12 12 11 12 12 12 12 11 11 11 11 11 11 11 11 11 12 13 14 15 15 16 17 19 20 21 23 24 26 27 27 26 24 22 20
5 6 6 6 7 7 8 8 8 9 10 12 16 20 23 26 27 28 29 29 29 30 29 28 28 27 25 24 24 23 24 25 24 23 22 21 19 17 16 14 14 13 13 14 14 14 14 14 14 13 13 12 12 12 12 12 12 12 11 11 11 10 10 10 10 10 10 10 10 11 12 13 13 13 15 16 18 20 21 24 27 29 29 27 27 26 23 22
8 8 8 8 8 8 9 10 11 14 18 22 25 28 30 31 31 30 30 29 27 27 27 26 25 23 23 22 22 21 21 22 21 19 17 16 14 13 13 13 14 14 15 15 15 15 14 14 13 13 12 12 12 12 12 12 12 11 11 10 10 10 10 10 10 9 9 9 9 9 11 11 12 13 15 17 18 20 22 25 28 30 30 29 28 26 25 24
9 9 10 10 11 13 15 18 22 26 29 31 32 32 33 32 30 28 27 25 25 24 24 22 20 20 19 18 18 17 16 16 15 14 12 12 12 13 14 15 16 16 16 16 15 14 13 13 12 12 12 12 12 12 12 12 11 11 11 10 10 10 10 10 10 9 9 10 9 10 11 11 12 14 15 17 19 22 24 27 30 31 32 31 29 27 25 23
14 15 16 18 21 23 26 29 31 33 34 35 35 34 33 30 28 26 25 23 22 22 21 20 18 16 16 16 15 13 12 12 12 11 12 13 14 15 16 16 16 16 16 15 14 13 13 12 12 12 12 12 12 12 11 11 11 11 11 11 10 11 11 10 10 10 10 10 10 11 11 11 13 14 15 18 20 23 26 29 31 33 34 33 31 28 25 22
22 24 26 28 30 32 34 35 36 36 36 36 35 33 30 28 26 25 24 22 20 19 20 18 15 13 14 15 12 10 11 12 13 14 15 16 17 17 17 16 16 15 14 14 13 13 13 12 12 12 12 12 12 11 11 11 11 11 11 11 11 11 11 11 10 10 10 10 10 11 11 12 13 15 17 20 22 25 28 31 34 35 36 34 31 28 25 23
29 31 33 34 36 37 38 38 38 36 35 33 32 30 29 27 25 24 23 20 18 17 16 14 14 13 13 13 11 12 14 15 17 18 17 18 17 16 16 15 15 14 13 13 13 12 12 11 11 11 11 11 11 11 11 11 11 11 11 11 11 11 11 11 11 10 10 10 10 10 12 13 14 16 18 21 24 27 31 34 36 38 37 35 31 28 26 24
36 37 38 39 39 39 38 37 35 34 32 31 30 29 27 25 24 22 20 17 15 14 13 14 14 13 13 13 13 15 16 17 19 19 17 17 17 16 15 14 14 13 13 13 12 12 12 11 11 11 11 10 10 11 11 11 11 10 10 10 10 10 11 11 11 11 10 10 11 11 12 14 15 18 20 23 25 29 35 37 38 39 37 34 31 28 27 25
41 41 40 39 38 36 35 34 33 32 31 30 29 27 25 22 20 19 16 16 14 13 14 15 14 14 15 14 15 17 17 18 18 17 16 16 17 16 15 14 14 13 12 12 12 12 11 10 10 10 10 10 10 10 10 10 10 9 9 9 10 11 11 11 11 11 11 11 12 12 14 15 17 19 21 25 27 31 37 38 37 37 34 32 30 28 27 25
41 40 38 36 35 34 32 31 30 30 30 28 26 23 21 19 18 18 17 16 16 16 17 18 16 16 17 16 18 19 17 16 16 15 16 16 16 16 15 14 14 13 12 12 11 10 10 10 9 9 9 9 9 8 8 8 8 8 9 10 10 11 11 11 11 11 11 12 12 14 15 16 18 20 23 26 29 34 37 37 36 34 33 32 30 27 26 24
39 37 36 35 33 32 30 29 28 28 27 25 22 20 20 20 20 20 19 18 20 21 21 20 20 19 18 19 20 18 16 15 15 15 16 16 16 15 15 14 14 13 12 12 10 9 10 10 8 8 7 7 7 7 6 7 7 8 9 10 10 11 11 11 11 11 12 12 13 15 17 18 20 23 25 28 31 35 36 35 35 33 33 31 28 26 25 24
37 35 35 34 32 31 29 28 27 24 22 20 20 21 21 22 22 22 20 21 24 24 21 20 21 19 18 19 18 17 17 15 14 14 15 16 16 15 15 14 14 13 11 11 9 8 8 8 6 6 5 5 6 6 6 6 7 8 9 9 10 11 11 11 12 12 12 13 14 17 19 20 22 24 26 29 31 33 34 34 34 34 32 28 25 26 27 26
34 33 33 33 31 30 28 25 23 21 20 20 22 24 24 24 24 22 22 24 24 23 21 21 21 20 18 18 17 17 16 15 14 13 14 15 15 15 15 14 13 12 9 8 7 6 7 7 5 4 4 4 5 5 5 5 6 7 8 9 10 11 11 11 12 12 13 14 15 17 20 20 22 24 26 28 29 30 32 33 34 34 30 26 26 29 30 28
32 31 31 30 28 27 25 22 22 22 22 23 24 26 25 24 23 23 24 25 23 21 21 21 20 19 18 17 17 17 16 15 14 13 12 13 14 14 12 12 13 10 7 6 5 6 8 7 3 3 3 3 4 5 5 5 6 7 9 10 10 11 11 11 12 13 14 15 15 17 20 20 21 23 25 26 28 29 32 33 34 33 29 28 30 33 32 29
30 29 27 26 26 25 24 23 23 24 24 24 24 25 24 23 23 24 25 24 21 21 20 20 19 18 18 17 17 16 15 15 13 11 11 11 13 12 10 12 12 9 6 5 6 7 7 4 2 2 3 3 4 4 5 5 5 7 8 9 10 10 10 10 11 12 13 15 16 17 20 20 20 23 24 26 28 30 33 34 35 33 31 32 34 35 34 31
27 26 25 25 25 24 24 24 25 25 25 24 24 24 23 23 23 24 24 21 20 20 20 19 19 18 17 16 16 15 15 15 13 11 11 12 14 12 11 11 10 9 8 6 6 6 4 2 2 2 3 3 3 3 4 5 5 6 7 8 9 9 10 10 10 11 12 13 15 17 19 19 19 21 22 26 29 31 33 35 36 35 35 36 38 38 35 33
26 26 25 25 25 25 25 25 26 26 26 25 25 24 23 23 23 23 22 21 20 19 19 19 18 16 16 15 15 15 15 15 14 12 12 13 13 13 13 11 9 8 7 5 5 4 2 2 2 3 3 3 3 4 4 4 4 5 6 7 7 8 9 9 10 10 11 12 13 15 17 18 17 18 21 26 29 31 33 35 37 38 39 41 41 39 37 35
26 26 26 26 26 26 26 27 27 27 26 25 24 23 23 22 22 21 21 19 18 18 17 17 17 16 16 16 15 16 16 15 15 14 13 14 13 13 12 10 9 7 5 5 5 3 2 2 2 3 3 3 3 4 4 4 4 4 5 6 7 8 8 8 9 10 11 12 13 13 15 17 17 18 21 26 31 34 35 37 39 42 43 43 41 39 38 37
26 26 26 26 26 27 27 27 27 26 25 24 23 23 22 22 21 19 18 18 16 16 16 16 16 15 16 16 15 15 15 15 15 14 14 14 13 12 12 9 8 6 5 5 4 3 2 2 3 3 3 3 4 4 4 3 4 4 4 5 6 7 7 7 8 9 10 11 13 13 15 18 19 21 25 28 32 34 35 39 42 44 46 44 41 39 39 38
26 25 25 26 26 26 27 27 26 25 25 24 23 22 21 20 19 18 17 17 16 16 16 16 16 16 16 16 15 15 15 14 14 14 14 13 12 11 11 9 6 5 4 4 4 3 2 3 3 3 4 4 4 4 3 3 3 3 4 4 5 6 7 7 7 9 11 12 13 14 17 20 21 25 30 32 33 34 36 41 44 46 47 44 42 40 39 40
26 26 26 26 26 26 26 25 25 24 24 23 22 22 21 20 19 19 18 17 17 17 17 17 16 15 15 15 15 15 14 14 14 13 13 12 11 10 9 8 6 4 4 4 4 3 3 3 3 4 4 4 3 3 3 3 3 3 4 5 5 6 6 6 7 9 10 12 14 14 16 22 27 31 35 36 36 38 40 43 44 45 46 45 43 42 41 42
27 27 27 26 26 26 25 24 24 23 22 22 21 21 20 19 19 18 18 17 17 17 16 16 15 14 14 14 14 14 13 13 12 12 11 10 10 9 8 7 6 4 4 4 4 3 3 3 4 4 3 3 3 2 3 3 3 3 4 4 5 5 5 6 7 10 10 11 14 15 17 22 28 34 37 39 40 40 41 42 43 44 46 46 46 44 42 45
29 29 29 28 28 27 27 25 24 23 22 21 20 20 19 19 19 18 17 17 17 17 17 17 16 15 15 15 14 13 12 12 11 10 11 10 9 8 7 6 5 5 4 4 4 4 4 4 4 4 3 3 3 2 3 3 3 3 3 4 5 5 6 6 7 8 10 11 13 18 22 26 31 35 37 40 39 38 39 41 42 43 45 47 46 45 45 49
30 30 30 30 30 30 29 28 27 25 24 23 21 21 20 19 19 18 18 18 18 19 19 19 19 18 17 17 16 14 13 12 11 10 10 9 8 8 7 6 5 5 5 4 4 4 4 4 4 3 3 3 3 2 3 2 2 3 3 4 4 5 6 7 7 8 11 12 13 17 23 32 38 37 37 39 38 36 37 39 42 42 43 45 45 46 48 52
31 31 31 31 31 31 31 30 29 28 26 25 24 22 22 21 20 19 19 19 20 20 21 21 21 20 19 18 17 15 14 13 11 10 9 7 8 8 8 6 5 5 5 4 4 4 4 3 3 3 3 3 2 3 2 2 2 2 2 2 3 3 4 6 8 10 12 13 14 15 19 29 37 36 38 40 37 36 37 39 41 40 39 42 45 49 51 55
32 32 32 32 32 31 32 31 30 30 29 28 27 25 24 23 21 21 21 21 21 22 22 22 22 21 20 18 17 15 13 13 12 11 9 8 9 9 7 6 5 5 5 4 4 4 4 3 3 3 3 2 2 2 2 2 2 2 2 2 2 2 3 5 8 11 13 13 14 15 16 23 30 34 39 40 36 36 38 39 40 39 40 43 48 52 55 58
31 32 32 32 32 32 32 31 31 31 30 30 28 27 27 26 23 23 23 23 24 24 23 23 22 21 20 19 17 14 12 12 11 10 9 8 8 8 6 5 5 4 4 5 4 4 4 3 2 2 2 2 2 2 2 2 2 2 2 2 2 3 4 6 9 12 13 13 13 15 16 19 26 33 38 39 37 36 38 40 41 43 46 52 57 61 63 64
32 32 31 31 32 31 31 31 31 30 29 29 28 28 29 27 25 25 25 25 25 24 23 22 22 21 20 19 17 13 11 10 9 8 8 8 7 7 6 5 5 4 4 4 4 3 3 3 2 2 2 2 2 2 2 2 2 2 2 2 3 3 5 7 9 12 14 14 13 14 16 17 22 30 35 37 38 38 39 43 46 50 58 67 73 75 75 75
32 32 32 32 31 31 31 31 31 30 29 28 27 27 27 26 25 25 25 25 24 23 23 22 22 21 20 19 16 12 9 8 8 7 8 8 7 6 5 5 5 4 4 4 3 3 3 3 2 2 2 2 2 2 2 2 2 2 2 3 3 3 4 6 8 10 13 15 16 14 14 14 17 24 29 34 38 42 45 48 52 58 69 78 80 81 83 85
33 33 33 33 32 32 32 31 31 30 29 28 27 27 26 25 25 24 24 24 23 23 23 22 22 21 20 19 15 11 9 8 7 7 7 7 7 6 5 5 4 4 3 3 3 3 3 3 2 2 2 2 2 2 2 2 1 2 2 3 4 4 4 5 7 8 9 13 16 16 15 15 16 19 28 36 40 45 51 53 57 66 75 78 79 81 85 88
34 34 34 34 33 33 33 33 32 31 29 29 27 26 25 24 24 23 23 24 24 24 23 23 22 21 20 18 15 11 8 8 7 7 7 7 7 6 5 5 4 3 3 3 3 2 2 3 2 2 2 2 2 2 2 2 2 2 2 2 4 5 7 8 8 9 10 11 14 16 17 18 18 20 29 38 41 46 53 56 61 69 74 76 78 81 85 89
34 34 35 35 35 34 33 33 33 32 30 29 28 27 25 24 22 22 22 22 23 24 24 24 23 22 20 18 15 11 9 8 7 7 7 7 7 6 5 4 4 3 3 2 2 2 2 2 2 2 2 2 2 2 2 2 2 2 2 2 3 5 8 10 11 13 14 14 14 16 18 20 21 23 29 36 43 50 55 58 64 70 72 75 78 81 85 91
33 34 35 36 36 35 34 34 33 33 32 30 29 28 27 25 23 22 20 19 20 21 23 24 23 22 20 18 15 12 9 8 8 7 7 7 6 6 4 4 3 3 2 2 2 2 2 2 2 2 2 2 2 2 2 2 2 2 2 3 4 6 7 10 13 16 16 17 17 17 21 23 22 23 27 35 46 54 57 60 66 70 73 75 77 80 86 93
32 32 33 34 35 36 36 35 33 33 32 31 29 28 28 27 25 23 21 19 17 18 20 22 23 22 21 19 16 13 9 9 8 8 7 7 6 5 4 3 3 2 2 2 2 2 2 2 2 2 2 2 2 2 2 2 2 2 2 3 5 6 7 8 12 17 18 18 19 18 22 26 23 21 27 38 49 56 59 64 68 70 73 75 78 83 88 91
28 29 31 32 33 35 35 35 34 33 32 31 30 30 29 27 26 24 22 19 17 17 18 21 22 21 20 18 15 12 10 9 8 8 7 6 5 4 3 3 2 2 2 2 2 2 2 2 2 2 2 2 2 2 2 2 2 2 3 3 4 5 8 8 9 15 18 20 19 16 19 26 24 24 31 42 55 62 64 67 69 70 73 77 82 87 87 88
24 26 29 30 32 33 33 34 34 33 33 31 31 30 29 28 26 24 22 19 16 16 17 19 21 20 19 17 13 11 10 9 8 7 6 5 4 4 3 3 2 2 2 2 2 2 2 2 2 2 2 2 2 2 2 3 2 2 3 4 6 7 9 10 9 11 16 19 20 16 17 22 24 26 34 45 58 67 68 68 69 69 73 80 86 87 86 89
23 24 27 29 30 30 31 32 32 33 32 31 31 31 30 28 25 22 20 17 15 15 16 17 18 17 16 14 11 9 8 8 7 6 5 4 4 3 2 2 2 2 2 2 2 2 2 2 2 2 2 2 2 2 2 3 3 3 4 5 7 8 9 10 9 8 12 18 21 18 16 20 23 25 31 41 52 61 65 66 67 68 74 84 88 86 86 91
22 24 26 27 28 29 30 30 31 31 31 30 31 30 29 26 23 20 18 15 14 14 14 15 15 14 13 11 10 8 7 6 5 5 4 3 3 3 2 2 2 2 2 2 2 2 2 2 2 2 2 2 2 2 2 2 3 3 4 5 6 8 8 10 10 9 10 15 21 22 18 18 21 22 23 32 43 53 58 62 66 67 75 87 90 86 88 91
22 24 26 27 28 28 28 29 29 29 29 30 29 27 25 22 19 17 15 13 13 13 13 13 12 11 11 9 7 6 5 5 4 3 3 3 3 3 2 2 2 2 2 2 2 2 2 2 2 2 2 2 2 2 2 2 3 3 5 6 7 8 8 10 13 13 12 12 17 22 22 19 21 22 21 26 37 49 55 59 64 67 77 90 91 85 84 85
21 23 26 27 27 28 28 29 29 29 28 27 25 22 19 17 15 14 13 12 12 12 12 12 11 10 8 6 5 5 4 4 3 3 3 2 3 3 2 2 2 2 3 2 2 2 2 2 2 2 2 2 2 2 2 3 3 3 5 6 7 8 8 11 14 15 14 14 15 19 23 23 22 23 24 26 36 50 55 58 65 69 79 93 92 82 80 81
21 21 22 22 23 24 24 25 25 24 23 21 18 16 14 12 11 10 10 10 10 10 10 10 9 7 6 4 4 4 3 3 3 2 3 2 2 3 2 3 3 2 3 2 2 3 2 2 2 2 2 2 2 2 3 3 4 4 5 5 5 7 7 10 14 15 15 16 17 18 21 25 25 23 25 27 37 51 55 59 68 71 80 95 92 81 79 80
19 19 19 18 18 18 18 19 18 17 15 13 12 10 9 8 8 8 8 8 8 8 8 7 6 4 4 3 3 3 3 3 3 2 3 2 2 3 2 3 3 2 3 3 2 2 2 2 2 2 2 2 2 2 3 4 4 3 4 5 4 5 7 10 13 15 15 16 19 19 19 24 25 24 25 26 36 51 56 61 70 71 79 94 94 84 80 78
18 17 17 16 15 14 14 13 13 12 10 9 9 7 6 6 6 5 6 6 6 6 5 4 4 3 3 3 3 3 3 3 3 3 3 2 3 3 3 3 3 3 3 3 3 2 2 2 2 2 2 2 2 2 3 3 3 3 3 4 4 4 7 11 14 15 16 15 18 20 20 22 24 23 25 25 32 50 58 59 66 69 75 90 96 91 85 78
17 16 15 14 14 13 12 12 11 10 9 8 8 7 6 5 5 4 4 4 4 4 3 3 3 3 3 3 3 3 3 3 3 3 3 3 3 3 3 3 3 3 3 2 3 3 2 2 2 2 2 2 2 2 2 3 3 2 3 3 3 3 5 10 13 16 17 16 18 21 21 23 23 22 24 24 30 48 55 54 60 67 70 82 95 99 92 80
15 15 14 14 12 11 12 11 11 10 9 8 7 6 6 5 5 4 4 4 4 3 3 3 3 3 3 3 3 3 3 3 3 3 3 3 3 3 3 3 3 3 3 3 3 3 2 3 3 2 3 2 3 3 2 3 3 2 2 2 3 3 4 7 12 16 17 18 20 21 21 23 23 22 23 23 28 43 52 51 57 64 67 75 91 102 97 83
Wind_Speed
17 18 19 20 21 21 20 20 21 22 22 22 21 20 20 20 21 21 20 20 19 19 19 18 19 19 21 22 25 30 33 33 32 33 31 29 28 27 27 27 27 26 25 24 24 22 21 20 19 18 17 17 16 15 15 15 16 16 17 16 15 15 14 14 14 14 16 17 17 18 20 21 21 22 23 24 25 27 28 29 30 32 34 36 38 40 42 42
22 23 25 26 25 24 23 24 25 25 24 24 24 24 24 24 24 23 22 22 21 20 19 19 21 22 24 26 29 32 33 33 34 34 32 31 30 30 29 29 28 27 26 24 23 22 22 20 18 18 17 17 17 17 17 19 19 19 19 18 16 17 18 18 18 18 19 20 21 21 22 24 24 24 25 26 27 29 30 31 33 35 37 38 39 40 41 42
27 28 30 30 29 28 27 27 27 27 27 27 28 28 27 26 25 24 23 22 21 20 21 21 23 24 26 28 30 32 32 33 35 34 32 32 31 30 29 28 27 27 26 25 23 22 21 19 17 17 17 18 19 19 20 21 21 21 21 20 20 20 21 22 21 21 21 22 22 22 23 24 25 25 26 28 28 30 31 32 34 36 37 39 39 40 41 42
30 31 31 31 30 30 30 30 30 30 31 31 30 29 28 27 26 25 23 22 22 22 22 23 24 26 27 28 30 31 32 33 34 32 32 31 30 29 28 27 26 26 25 24 23 22 21 19 18 19 20 21 21 21 22 22 22 23 23 22 23 22 23 23 22 21 21 22 22 22 23 25 26 27 27 28 29 30 31 33 35 36 37 38 39 40 41 42
32 32 32 32 32 32 32 32 33 33 32 31 30 30 28 27 26 25 24 23 23 22 23 23 24 25 26 28 30 31 32 32 32 31 30 30 29 28 27 26 25 25 24 24 24 23 22 21 21 22 23 23 23 23 24 24 23 23 24 23 23 23 23 23 23 23 22 23 24 24 25 26 27 27 28 28 29 31 32 34 35 36 37 37 39 40 40 41
33 33 33 33 33 34 34 34 34 33 32 32 31 30 28 27 26 25 24 24 23 23 23 24 24 25 26 28 29 30 30 30 30 30 29 29 28 28 27 26 26 25 25 24 25 25 24 23 24 25 25 24 25 25 25 25 24 24 24 24 24 25 24 25 25 24 24 24 25 26 27 27 28 28 28 29 30 32 33 34 35 36 37 39 40 40 40 41
34 34 35 35 35 35 35 34 34 34 33 32 31 30 28 27 26 25 24 24 23 23 24 24 24 24 26 27 27 28 29 29 29 29 29 29 29 29 28 27 27 26 26 26 26 26 25 25 26 26 26 26 25 25 25 25 25 25 25 25 26 26 26 25 25 25 24 25 26 26 27 28 29 29 29 30 31 32 33 34 36 37 38 39 40 40 41 42
36 36 36 36 36 36 35 35 34 34 33 32 30 29 28 27 26 26 24 23 22 22 23 23 23 23 25 26 26 27 28 28 28 28 28 28 29 30 29 29 28 28 28 28 28 28 27 27 27 26 26 25 25 25 25 25 26 27 27 27 27 27 26 25 25 24 25 26 26 27 28 28 29 29 29 31 32 33 34 35 36 38 39 39 40 41 41 42
38 38 37 37 37 36 36 35 34 33 32 31 30 29 28 27 26 25 24 23 22 22 22 22 22 23 25 26 26 28 28 28 28 28 28 29 30 31 31 31 31 30 30 29 29 29 29 28 27 26 26 25 25 26 26 26 27 27 28 27 27 27 27 26 25 24 25 26 27 27 28 28 28 28 29 30 31 33 34 35 37 38 39 39 39 40 41 42
38 38 38 37 37 36 35 34 33 32 31 30 29 29 28 27 26 25 24 24 23 22 22 21 23 25 26 27 28 30 30 30 31 31 32 33 33 33 33 34 33 31 31 30 29 29 28 28 27 27 27 26 26 26 27 27 27 27 28 27 27 28 28 27 26 26 26 27 28 28 27 27 27 28 29 30 31 33 34 36 37 38 39 39 40 40 41 42
39 38 38 37 37 36 35 34 33 32 31 30 29 28 28 27 26 26 26 25 25 24 25 26 28 30 31 32 33 34 35 34 34 35 35 36 35 35 34 34 33 32 31 30 29 28 28 28 28 28 27 27 26 26 26 26 26 27 27 27 28 28 28 27 27 27 27 26 27 27 27 27 27 28 29 30 32 33 35 36 37 38 39 39 40 40 40 41
39 39 38 37 36 35 34 33 32 31 30 29 29 29 28 27 26 27 28 28 29 30 31 32 34 36 37 37 36 38 38 38 37 37 37 36 35 35 34 34 33 32 30 30 29 28 28 28 27 28 27 26 26 26 26 25 25 26 27 28 28 27 28 28 28 28 28 27 26 26 27 27 27 28 29 30 32 34 35 36 37 38 39 39 39 40 40 41
39 38 37 36 35 34 33 32 31 31 30 30 29 29 27 27 28 29 30 32 34 35 35 36 39 41 39 37 38 40 39 38 38 36 36 35 34 34 34 33 33 32 31 30 30 29 28 28 27 27 26 25 25 25 25 25 25 26 27 28 28 27 28 29 29 29 29 29 28 27 27 28 28 29 29 31 33 34 36 37 38 39 39 39 39 39 40 41
37 36 35 34 34 33 33 32 32 31 31 30 29 28 28 28 30 31 33 36 38 38 39 40 42 41 38 37 39 39 38 37 37 35 35 35 34 34 33 32 32 32 31 30 29 28 28 27 27 27 25 25 25 24 25 25 26 26 26 27 27 28 29 30 31 31 31 31 31 30 29 29 29 29 30 32 33 34 36 37 38 39 39 38 39 39 40 42
35 35 34 34 33 33 33 32 32 31 30 29 29 29 29 30 31 33 36 39 40 41 41 41 40 39 37 37 37 36 36 36 35 34 35 35 34 33 32 32 31 30 30 30 29 28 27 27 28 27 25 25 25 25 25 25 25 25 25 26 28 30 31 31 32 32 32 32 31 31 30 30 30 31 32 33 34 34 36 37 38 38 37 37 38 39 41 43
34 34 34 34 33 33 32 32 31 30 29 29 30 31 32 33 35 37 39 41 41 41 40 38 37 36 35 35 35 34 35 35 35 35 35 34 33 32 31 31 29 28 29 30 30 28 27 28 29 27 26 26 26 26 25 25 25 26 27 29 30 32 32 32 32 33 34 33 32 32 31 31 32 32 32 33 34 34 35 37 37 37 36 37 38 39 41 44
34 34 33 33 32 31 31 31 31 31 31 32 33 33 34 36 37 39 41 41 39 39 38 37 36 33 32 34 33 32 33 34 35 35 34 34 32 31 31 30 29 28 28 29 29 28 28 28 28 27 26 26 26 25 26 26 28 28 29 30 31 32 33 33 34 35 35 35 33 32 32 33 33 33 32 32 33 34 35 37 37 36 36 37 38 40 43 45
33 32 31 31 31 30 31 32 33 34 34 34 34 35 36 37 38 40 40 38 37 37 38 37 33 30 33 33 31 31 32 33 34 33 34 33 32 30 30 30 29 27 27 28 28 29 28 27 28 27 26 26 26 27 28 29 30 30 30 31 32 33 33 34 35 36 36 36 35 33 33 34 33 33 32 33 34 35 36 37 36 36 37 38 40 43 45 47
32 31 30 30 30 31 32 33 34 36 37 36 36 36 37 38 39 38 37 36 35 35 37 35 30 31 34 32 31 32 32 32 32 32 33 33 31 29 29 29 27 26 27 28 28 28 28 27 28 27 26 27 28 29 30 31 30 31 31 32 33 34 34 35 35 36 36 36 36 34 32 34 33 33 33 34 35 37 37 37 37 37 38 40 43 45 47 49
31 31 30 30 31 32 33 34 36 36 37 38 37 36 37 39 37 36 35 34 33 34 36 33 30 32 34 33 33 33 32 31 31 31 32 32 30 28 27 27 26 25 27 28 28 28 27 28 29 28 27 28 29 30 31 31 32 32 33 34 35 35 35 36 36 37 36 35 36 34 32 33 34 33 34 36 37 38 38 38 38 39 41 42 45 46 49 52
31 31 31 31 31 32 34 35 36 36 36 37 37 35 37 38 36 35 33 32 33 34 34 33 33 35 35 34 34 32 31 31 30 31 31 31 29 28 27 27 26 26 27 29 29 27 26 27 29 29 29 29 30 31 32 32 33 33 33 34 35 36 36 37 38 37 37 36 36 35 33 34 35 35 36 37 38 38 38 38 39 41 42 44 46 48 51 54
31 31 31 32 32 33 34 34 35 35 35 36 37 36 37 37 34 33 31 30 33 34 34 34 35 35 34 34 33 31 30 29 29 30 30 30 29 28 28 26 24 25 28 30 28 24 24 28 30 30 30 30 31 32 32 34 35 34 34 34 35 37 37 38 39 38 37 36 36 36 34 36 37 36 37 38 38 38 38 39 40 42 43 44 48 50 52 54
31 31 31 32 32 33 33 33 34 34 35 36 36 35 36 34 32 32 31 31 33 33 34 35 35 34 33 32 32 30 29 28 28 29 29 30 29 27 26 23 23 25 27 27 24 22 26 30 30 29 30 31 32 32 33 35 36 35 35 36 37 38 38 38 38 38 38 37 37 37 36 37 38 38 38 38 37 38 39 40 41 42 44 47 50 52 53 54
31 30 31 31 31 32 32 33 34 34 34 35 34 34 34 32 32 32 31 31 32 33 33 33 33 32 31 31 30 30 29 28 27 27 27 27 26 25 22 21 22 24 24 25 24 24 27 30 29 29 30 31 32 33 34 36 36 36 36 37 38 38 39 39 38 38 38 38 38 38 38 39 40 40 39 39 39 41 42 43 44 45 47 50 51 52 53 55
30 30 30 30 30 31 31 32 32 32 33 32 32 32 32 31 31 32 31 30 31 32 32 31 31 31 30 30 29 27 28 27 25 25 25 25 24 22 20 20 22 22 23 26 25 25 27 29 29 29 29 30 31 33 35 36 36 37 37 38 38 39 39 39 39 38 38 38 39 41 40 41 42 41 40 41 42 44 45 46 46 48 50 51 51 52 53 56
30 30 30 30 29 29 29 30 30 31 31 31 31 30 29 29 30 31 30 30 30 30 30 28 28 29 28 27 26 25 25 24 23 23 23 22 22 21 21 21 22 22 24 26 25 25 27 29 29 29 29 30 32 34 36 37 37 38 38 38 39 39 39 40 40 40 41 41 42 43 43 43 43 42 42 44 45 47 47 48 49 50 51 51 51 53 55 57
30 29 29 29 28 28 28 29 29 29 29 29 29 28 28 28 29 28 29 30 29 28 29 27 25 27 26 25 24 23 22 21 20 21 21 21 21 21 21 21 22 23 24 26 25 25 27 29 29 30 30 31 33 35 37 37 37 38 38 38 39 39 40 41 42 42 43 43 44 44 44 44 44 44 44 46 47 48 49 50 51 51 51 51 52 54 56 58
29 29 28 28 27 27 27 28 28 27 27 27 27 26 26 27 27 26 26 29 28 26 27 26 24 25 24 23 22 21 19 19 19 20 19 20 20 21 21 21 22 23 25 25 24 25 27 28 29 29 30 33 35 36 37 37 37 38 38 38 39 40 41 43 43 44 43 44 44 45 45 44 44 45 46 47 49 50 50 50 51 51 51 51 53 55 57 59
27 27 27 26 26 26 26 26 26 25 25 25 24 24 24 24 25 24 24 27 26 24 24 24 23 23 23 22 21 19 19 18 19 19 18 19 20 20 20 21 22 23 24 23 23 24 26 27 28 29 32 34 35 36 36 36 37 38 38 38 39 40 42 44 45 45 45 45 45 45 46 45 45 46 47 48 49 49 50 51 51 51 51 52 54 56 58 59
25 25 24 24 24 24 24 24 24 24 24 23 22 22 22 23 22 22 23 25 24 23 23 22 21 21 21 22 20 18 18 17 17 18 18 18 19 19 20 20 21 21 22 22 23 24 26 27 29 30 33 35 35 35 35 36 37 38 38 39 39 40 43 45 46 46 46 46 45 45 46 47 47 47 48 48 48 49 50 51 51 51 52 53 54 56 57 59
24 23 23 22 22 22 22 22 22 22 22 21 21 21 21 22 20 20 22 23 23 22 21 20 19 19 20 20 18 18 17 16 16 17 18 18 18 20 20 19 20 20 21 22 23 24 26 28 29 31 33 34 34 35 35 35 37 37 38 39 40 42 43 45 46 47 47 46 46 46 47 48 48 48 47 47 47 49 51 51 52 53 53 54 55 56 58 59
23 22 22 21 21 21 20 20 21 21 20 20 20 19 18 18 18 17 19 20 20 20 19 18 18 18 18 17 17 16 16 15 15 16 17 17 19 19 18 18 19 20 20 21 23 25 27 28 29 31 32 33 34 34 34 35 37 37 38 40 42 44 45 46 47 48 47 47 47 47 48 48 47 47 46 46 46 48 50 52 53 54 54 55 57 58 59 61
21 21 20 20 19 19 19 19 19 19 19 19 18 18 17 15 15 16 16 16 17 17 16 16 16 16 16 16 17 16 16 15 15 15 16 17 18 17 16 17 18 19 21 22 24 26 27 28 30 31 32 33 34 34 34 36 37 38 40 43 44 46 48 48 47 47 47 47 47 48 48 47 46 46 46 45 47 48 50 52 53 55 56 58 59 60 61 62
19 18 17 17 17 17 17 17 17 17 17 17 16 17 16 12 12 14 13 14 15 14 14 14 15 15 16 16 17 16 15 15 15 14 15 16 16 16 16 18 19 20 22 23 25 26 28 29 31 31 32 33 34 35 36 37 39 40 42 44 45 47 48 48 47 46 46 47 48 48 48 48 48 48 47 47 48 49 50 53 55 56 59 61 62 63 64 64
16 16 16 15 15 15 15 15 15 15 15 15 15 15 13 10 11 12 11 12 12 12 13 13 14 15 15 16 16 15 15 14 14 14 15 16 15 15 17 18 20 21 22 24 25 27 29 30 31 32 33 34 35 35 36 37 39 41 42 43 45 47 48 49 48 47 46 47 49 48 48 48 48 48 48 48 49 50 51 54 56 58 61 63 64 65 65 66
14 14 13 13 13 12 12 13 12 12 12 13 13 13 11 9 10 10 10 10 11 11 12 12 13 14 14 14 15 14 14 14 14 14 14 14 14 15 17 19 20 21 23 24 26 28 30 30 31 32 33 34 35 36 36 37 39 41 42 44 46 47 48 49 49 49 48 47 48 49 48 47 48 48 48 49 50 51 53 55 57 60 62 64 65 66 67 68
10 10 10 10 10 10 10 10 10 10 10 10 10 11 10 9 9 9 9 9 9 10 11 11 12 13 13 13 13 13 13 13 13 13 13 13 14 16 18 19 20 22 23 25 26 28 29 30 31 32 33 34 35 36 37 37 39 41 43 45 46 47 48 49 50 50 50 48 47 50 51 50 50 50 50 50 51 52 53 55 58 60 63 65 67 68 70 70
7 7 7 7 7 7 7 6 6 6 7 8 8 8 9 8 8 8 8 9 9 9 10 11 11 12 12 12 11 11 11 12 12 12 12 13 15 17 18 19 20 22 23 25 26 27 29 30 31 32 33 34 35 37 38 39 40 42 44 45 46 47 48 49 50 51 51 50 48 49 51 52 52 51 51 51 52 53 53 55 58 60 63 66 68 70 71 72
6 6 5 5 4 4 4 3 4 4 4 5 6 7 8 8 8 8 8 9 9 9 9 10 10 10 10 10 10 10 10 10 11 12 13 14 16 17 18 19 21 22 23 24 25 27 28 30 31 31 33 34 35 37 38 40 41 43 45 46 47 47 47 48 49 50 51 52 51 50 51 51 52 51 52 53 53 54 54 55 57 60 63 67 69 71 72 72
8 7 6 5 4 3 2 0 2 3 2 3 4 5 6 7 7 8 8 8 8 8 8 9 8 8 8 8 9 9 9 10 11 12 14 15 16 18 19 20 21 22 23 24 25 27 28 29 31 32 33 34 35 37 38 41 43 44 45 47 47 48 48 48 48 49 50 52 53 52 51 51 52 52 52 54 54 55 55 56 58 60 64 68 70 72 72 72
9 8 8 7 6 5 4 4 4 4 3 3 4 4 5 6 7 7 8 8 8 8 8 7 7 7 7 8 8 9 9 10 12 13 15 16 17 18 19 20 21 22 23 25 25 27 28 29 30 32 32 34 35 36 38 41 43 44 46 47 48 48 49 49 49 48 49 51 53 53 51 50 52 53 53 54 54 55 56 57 58 61 65 68 71 72 72 72
9 9 9 9 9 8 7 7 7 6 5 5 5 5 6 6 7 7 8 8 8 8 7 6 6 7 7 8 9 9 10 11 13 14 15 16 17 18 19 20 21 22 23 24 25 27 28 29 30 31 33 34 35 36 39 41 43 44 45 47 48 49 49 50 50 49 48 49 52 53 51 50 52 54 53 54 54 56 57 58 59 62 66 69 71 72 72 72
9 9 10 10 10 10 9 10 10 9 8 8 7 7 7 7 7 8 8 8 9 8 8 7 7 7 8 8 9 10 11 12 14 15 16 16 17 18 19 20 21 22 23 25 26 27 28 29 30 31 32 34 36 37 39 42 43 44 44 46 47 49 49 49 51 51 49 48 50 53 52 51 51 52 52 53 54 55 57 59 60 62 66 69 71 71 71 71
8 8 9 10 11 11 11 11 11 11 11 10 9 9 9 9 9 8 8 9 8 8 8 7 7 8 8 9 10 11 12 13 14 15 15 16 17 18 19 20 21 23 24 25 27 28 29 30 31 31 31 32 34 36 38 40 42 43 44 45 46 48 49 49 51 53 52 49 48 51 53 51 50 51 51 52 53 54 55 57 59 61 65 68 70 70 70 71
7 7 8 9 10 11 11 11 12 11 11 11 10 10 10 10 10 9 9 9 9 9 8 8 8 8 9 10 11 12 13 14 14 14 15 16 17 17 19 20 21 23 24 26 27 29 30 32 33 34 35 36 37 38 39 40 42 44 44 45 45 46 47 48 50 52 53 51 48 48 52 52 50 49 49 50 51 52 53 55 57 60 64 67 68 69 69 70
7 7 7 8 9 9 9 10 11 11 11 11 10 11 11 11 10 10 10 10 10 9 9 9 9 9 10 11 12 13 13 13 14 14 15 16 17 18 19 20 22 23 24 25 27 29 30 32 34 35 36 38 39 40 41 42 43 44 44 45 46 46 46 47 49 51 53 52 49 47 51 53 52 50 49 49 50 51 53 55 56 59 62 65 67 67 68 69
7 7 7 8 8 9 9 9 9 9 10 10 10 11 11 11 11 11 11 11 10 10 10 10 10 11 11 12 12 12 13 13 14 14 15 16 18 19 19 21 22 23 25 26 27 28 30 31 33 35 37 38 39 40 41 42 44 44 44 45 45 45 45 46 47 49 52 52 50 49 49 52 52 51 50 50 51 51 53 55 56 59 62 65 66 67 68 68
8 8 8 8 9 9 9 9 9 9 10 10 11 11 12 12 12 12 11 11 11 11 11 11 11 12 12 12 12 12 13 14 15 15 16 17 18 19 20 22 23 24 25 27 28 28 30 31 32 34 37 38 39 40 40 41 43 44 44 45 46 46 46 46 46 48 51 51 51 51 50 50 51 51 49 50 51 52 54 56 57 60 62 64 65 66 68 68
10 10 10 10 10 10 10 10 10 10 10 11 11 12 12 12 12 12 12 12 12 12 12 12 12 12 12 12 12 13 14 14 15 16 17 18 19 21 22 23 24 25 27 28 29 30 31 32 32 33 35 38 40 41 40 40 42 44 44 45 46 47 47 46 45 47 50 50 50 51 50 48 49 50 50 49 50 51 53 56 57 59 61 62 63 66 68 68
13 12 12 12 12 11 11 11 11 11 11 12 12 12 12 12 12 12 12 12 12 12 12 12 12 12 13 13 13 14 15 16 17 18 18 19 21 22 23 25 26 27 28 29 30 31 32 33 33 33 34 36 39 40 41 41 42 44 44 45 46 47 47 46 45 46 49 50 49 49 50 48 48 50 50 49 49 50 52 54 56 58 60 61 62 65 68 68
16 15 15 15 14 14 13 13 13 13 13 13 13 13 13 13 13 12 12 12 13 13 13 13 14 14 14 15 16 16 17 18 19 19 20 21 23 24 25 26 27 28 30 30 31 32 33 34 34 34 34 36 38 39 41 42 43 43 44 45 46 47 47 46 44 45 48 49 49 48 49 49 49 50 50 49 48 49 51 53 55 57 59 61 62 64 67 68
19 19 18 18 17 17 17 16 16 15 15 15 14 14 14 14 14 14 14 14 14 15 15 15 16 16 17 17 18 19 20 20 21 22 23 23 25 26 27 28 29 30 31 32 33 34 34 35 36 36 36 37 38 40 41 42 43 44 45 45 46 46 47 47 45 45 47 48 48 48 48 49 50 50 51 49 47 48 50 53 55 57 59 61 63 63 65 67
Wind_Direction
120 120 120 121 128 133 128 123 120 121 121 120 119 117 116 114 111 108 103 99 94 92 92 93 93 92 90 87 84 83 84 86 92 99 103 108 111 112 111 110 108 106 104 102 100 97 95 91 89 90 90 89 87 84 81 76 69 64 60 56 50 47 42 36 31 23 20 16 11 9 4 360 357 354 351 348 344 341 338 334 330 329 329 330 333 335 334 332
119 117 115 116 119 122 121 120 119 118 117 116 116 115 113 111 108 104 100 98 97 97 97 95 92 88 85 83 82 84 85 90 95 98 101 105 106 107 106 105 104 102 100 98 96 95 94 94 94 94 93 90 85 79 73 68 63 59 56 53 46 40 35 31 26 19 15 12 9 5 1 358 355 351 347 344 341 338 333 330 330 331 332 333 334 333 329 328
115 114 113 115 117 119 118 117 117 116 115 114 113 112 110 107 104 102 101 101 101 99 95 91 88 86 85 85 87 89 91 95 97 98 99 101 101 101 100 100 100 99 99 98 98 98 97 95 94 93 90 85 79 73 67 61 58 54 50 46 40 34 29 25 21 16 11 7 5 1 357 355 352 348 344 341 338 333 331 331 332 333 333 333 331 328 328 330
111 111 112 114 115 116 116 115 115 114 113 112 111 109 107 105 104 104 104 103 101 98 94 91 89 88 89 90 92 93 94 95 96 96 98 98 97 98 98 98 98 99 99 100 100 98 96 94 92 88 83 77 71 66 61 55 51 48 43 40 35 30 26 22 18 13 8 4 1 358 355 352 350 346 342 338 334 332 333 333 334 333 332 330 328 328 331 332
109 110 111 113 114 114 114 114 113 112 111 110 108 106 105 105 106 106 105 103 100 98 96 93 91 91 93 94 94 94 94 94 96 97 98 98 99 98 97 97 96 96 96 96 96 93 91 89 86 80 75 71 66 60 56 51 47 45 41 37 33 29 24 20 15 12 8 3 359 356 354 351 348 344 339 336 334 334 335 334 333 332 330 329 330 332 332 332
108 110 111 111 112 112 112 111 111 110 109 107 107 106 107 106 106 105 104 102 101 99 97 95 93 94 95 95 94 95 96 97 98 99 99 99 99 97 96 94 94 94 93 92 90 88 86 83 78 73 69 66 61 57 54 51 47 44 41 37 33 28 23 19 14 10 6 2 359 356 353 350 347 342 339 337 337 336 335 334 332 332 332 333 333 333 333 334
108 109 109 110 110 110 110 109 108 107 107 107 107 107 107 107 106 105 103 102 100 98 97 97 97 98 97 96 97 98 97 97 97 97 97 97 97 96 95 93 93 92 91 89 86 84 81 76 72 68 65 62 60 57 54 51 47 44 40 36 33 28 24 19 14 9 5 2 359 356 352 350 346 342 340 339 338 336 335 334 334 335 335 335 334 334 335 336
107 107 108 108 108 108 107 106 106 106 106 107 108 108 108 106 104 102 101 100 99 98 98 99 100 100 99 99 100 99 98 97 96 96 95 95 95 93 92 91 90 89 87 85 81 79 75 72 69 66 64 61 59 56 52 49 46 43 40 36 33 29 25 21 16 11 7 3 0 357 353 350 346 343 342 341 338 337 335 336 336 337 336 335 336 336 337 337
106 106 106 106 105 105 104 104 105 106 107 108 108 107 105 103 102 101 100 99 98 98 98 99 101 102 101 101 101 100 99 98 98 97 96 94 92 91 89 88 87 85 82 80 76 74 72 70 68 65 63 60 57 54 51 48 45 43 40 38 35 32 28 23 19 14 10 6 3 359 355 351 347 345 344 341 338 337 337 337 338 338 337 337 338 338 337 338
104 104 103 103 103 103 104 105 106 107 107 106 105 104 102 101 100 99 98 97 96 95 96 100 102 102 101 101 101 99 99 100 99 98 96 93 91 89 88 85 83 81 79 77 75 72 71 69 66 63 60 57 54 53 50 48 46 44 41 39 36 33 30 27 23 18 14 9 4 1 358 353 350 348 344 342 340 339 338 339 339 339 339 339 339 339 338 337
101 101 101 102 102 103 104 105 105 105 105 103 102 101 100 100 99 98 95 93 93 95 99 101 101 102 102 100 99 98 98 98 97 95 93 91 90 88 85 82 80 78 77 76 75 72 69 66 64 61 58 56 53 51 50 47 45 43 41 38 35 33 30 28 25 22 17 12 6 2 360 356 354 350 347 344 342 341 340 340 341 341 342 341 340 339 338 337
100 101 102 102 103 104 104 104 104 103 102 102 101 100 100 99 97 95 93 94 96 99 100 101 102 101 99 98 98 97 96 95 94 92 91 89 87 84 82 81 80 79 77 75 72 70 67 64 62 60 56 53 52 50 48 45 42 40 38 36 34 31 29 28 26 23 20 15 10 5 1 360 357 353 350 346 343 342 341 341 343 344 343 342 340 338 338 338
102 102 103 103 104 104 103 103 102 101 101 100 100 100 98 96 96 95 96 98 99 101 102 102 100 96 96 98 97 95 93 93 91 89 87 86 84 83 82 82 81 79 77 73 70 67 65 63 60 58 53 50 49 47 45 41 39 36 34 33 32 29 28 28 26 24 20 18 16 10 6 3 360 355 351 347 345 344 342 342 345 345 344 342 340 339 338 339
103 103 104 104 104 104 103 102 101 100 100 99 99 98 96 96 97 98 99 101 102 102 100 98 95 95 97 97 95 93 93 91 89 87 86 84 83 82 82 82 81 79 76 73 69 66 64 61 59 56 52 48 47 45 42 39 36 34 31 31 29 27 27 27 26 24 21 19 17 14 10 6 1 356 352 349 346 345 344 344 346 346 344 342 340 340 339 339
104 104 104 104 104 104 103 103 102 101 100 99 99 98 98 99 100 101 103 102 100 98 96 96 96 97 98 96 94 94 92 90 88 86 85 84 83 82 82 80 79 78 76 73 69 65 62 59 57 55 50 46 45 43 40 37 35 32 30 28 26 26 27 26 25 24 22 20 18 15 13 8 3 358 355 350 346 346 346 345 347 347 344 342 341 340 340 340
104 104 104 104 104 104 103 103 102 101 101 101 101 101 102 103 103 102 100 97 95 95 96 98 97 97 99 97 94 93 91 90 89 87 85 84 83 82 81 78 76 74 73 72 69 64 60 57 56 52 47 45 43 41 39 35 33 29 26 25 24 25 26 25 24 23 22 21 18 16 13 9 5 0 356 350 347 348 348 347 349 348 346 345 342 342 343 343
102 102 103 103 103 104 104 104 103 103 103 102 103 104 105 104 102 99 95 94 96 97 98 96 95 98 98 93 92 93 91 91 89 88 86 84 82 80 77 75 72 69 68 69 68 64 58 56 54 50 45 43 41 38 35 32 30 26 24 24 25 25 25 24 23 22 22 21 19 15 12 9 6 1 355 350 349 349 350 350 351 349 348 346 343 345 346 345
101 101 102 103 103 104 105 105 105 104 104 105 106 106 105 103 100 97 97 98 99 99 98 96 97 97 93 91 93 93 92 91 90 89 87 83 80 77 74 72 69 66 66 65 64 62 58 54 52 47 42 41 38 35 32 30 28 25 24 24 25 25 25 24 23 22 21 20 18 15 11 8 4 360 355 351 351 352 353 353 353 351 349 347 348 350 348 345
101 101 101 102 103 104 106 106 105 106 107 107 107 106 105 102 99 99 100 101 100 100 97 96 97 95 92 94 95 92 91 92 91 88 85 81 78 74 71 69 67 63 62 61 58 58 57 53 50 45 40 38 36 33 31 29 28 25 23 23 24 25 24 24 24 23 22 20 18 15 11 7 3 360 357 355 355 356 355 354 354 353 350 350 352 351 348 346
100 101 101 102 104 106 107 107 107 107 108 108 107 106 105 102 101 102 102 101 101 98 97 99 100 96 94 94 93 92 91 89 87 84 81 79 76 73 69 66 64 59 58 57 54 53 54 52 48 43 38 37 36 34 31 28 27 25 23 22 23 24 24 23 24 23 22 20 18 16 11 7 5 2 0 359 358 358 356 355 355 354 353 353 353 352 350 349
101 101 103 104 106 107 107 108 108 108 109 108 107 107 105 103 104 104 102 103 102 101 101 104 101 97 96 94 92 91 89 87 85 82 79 77 75 72 67 61 57 55 54 54 49 49 53 51 45 41 37 36 35 33 31 28 27 26 24 23 22 23 23 22 22 22 21 19 18 17 13 9 8 6 4 3 0 358 357 357 357 356 354 354 353 354 353 351
102 103 105 106 107 108 108 109 109 109 110 108 107 106 104 104 105 104 105 107 105 104 104 102 99 97 96 94 92 90 87 86 84 81 77 74 69 65 61 57 53 51 51 51 47 47 51 48 42 39 36 34 34 32 30 28 27 25 23 22 22 22 22 21 20 19 19 19 17 16 14 11 10 8 7 5 1 359 359 360 359 357 354 354 355 356 354 351
102 104 105 107 108 108 110 110 109 109 108 106 104 104 104 105 107 107 108 107 104 103 102 99 97 96 94 92 90 87 83 79 78 76 72 69 66 60 57 55 52 51 51 50 48 44 44 43 40 36 34 33 32 30 29 28 25 23 22 20 20 20 20 21 19 17 17 17 17 16 14 13 12 11 9 6 2 1 2 2 0 357 355 356 358 357 354 350
104 105 107 108 109 110 110 109 108 106 104 103 104 105 106 108 110 108 107 105 103 102 99 97 96 94 92 89 86 83 80 76 73 72 71 70 67 63 59 54 52 53 53 51 46 41 40 40 38 34 33 31 30 29 28 27 24 22 20 19 18 17 18 19 18 17 16 16 16 16 14 14 14 13 10 7 5 5 5 3 0 357 357 359 359 356 353 351
107 107 108 108 108 108 108 106 106 105 105 106 107 108 109 111 110 107 106 105 102 99 96 94 93 91 87 84 81 80 78 75 72 71 71 70 68 66 59 52 50 49 50 48 41 36 37 38 35 33 31 30 29 29 28 25 22 21 19 18 17 15 16 16 15 15 15 15 16 15 14 14 14 13 10 8 8 7 6 3 1 359 359 359 357 355 353 352
109 108 107 107 107 106 105 105 106 106 108 109 109 110 111 110 108 106 105 102 98 96 93 90 89 87 83 81 79 77 75 74 72 70 68 66 64 61 53 47 46 44 45 46 38 32 34 34 32 29 27 28 28 28 27 23 20 20 18 16 15 13 13 14 13 13 14 15 15 15 14 14 14 12 10 10 9 8 6 3 1 1 0 358 355 355 355 354
109 108 107 107 107 106 105 105 106 107 108 109 110 110 109 107 104 103 103 99 95 93 91 88 85 84 81 78 77 74 73 73 70 67 64 60 55 53 48 42 42 41 42 42 34 30 31 31 29 26 25 27 27 26 25 21 18 18 16 14 13 12 11 12 12 13 14 14 14 14 14 13 12 11 10 10 9 7 6 3 2 2 360 357 356 356 356 355
109 108 108 107 107 106 105 106 106 106 107 107 108 108 106 104 102 100 99 97 94 91 89 86 82 80 79 75 73 71 70 69 68 64 59 55 50 47 44 40 39 39 39 37 31 28 29 27 26 23 23 26 25 24 22 18 16 16 14 13 12 10 10 10 11 13 14 15 14 13 13 14 12 11 10 9 8 7 5 3 3 2 359 357 357 357 357 356
110 109 108 107 106 105 104 104 104 104 105 105 105 104 103 101 100 100 98 95 93 90 86 83 79 77 76 73 70 68 66 64 63 60 54 51 49 43 40 38 36 36 36 33 29 27 26 24 23 21 21 24 23 22 20 15 14 14 12 12 11 9 9 9 10 12 12 14 14 13 13 14 13 11 10 8 7 6 4 4 3 1 360 359 358 357 357 356
111 110 108 107 105 104 104 103 103 103 102 102 102 101 101 99 99 99 97 95 92 88 83 79 76 73 72 70 67 64 61 58 56 55 50 46 45 41 36 36 35 34 33 29 25 24 23 22 20 19 20 22 20 20 18 14 13 12 10 10 9 9 10 9 9 10 11 12 14 14 13 14 14 12 9 7 5 4 4 5 3 1 1 360 358 357 357 357
113 111 110 108 107 106 105 103 104 102 101 101 99 98 99 99 99 98 97 95 91 85 80 75 71 67 65 65 62 59 58 54 51 50 47 42 41 38 33 33 33 31 28 25 22 21 20 19 18 18 19 19 18 18 15 12 12 10 8 8 8 9 10 9 8 8 10 12 13 14 15 14 13 11 8 5 3 3 4 4 3 2 2 0 359 358 357 358
116 115 113 111 109 107 105 104 104 103 102 101 99 97 96 97 100 97 96 95 89 84 79 73 67 62 60 60 57 54 52 49 46 44 41 38 38 35 29 30 30 28 25 22 20 19 18 18 18 18 18 16 16 15 12 11 10 8 7 6 6 7 8 8 9 9 9 11 12 13 15 15 12 9 7 4 2 3 4 4 3 2 1 1 360 359 358 359
118 117 115 112 110 108 105 104 102 101 102 100 100 98 94 95 100 97 93 91 86 81 75 68 64 59 55 51 49 47 45 44 42 40 37 37 37 32 27 28 27 24 21 18 17 17 16 16 17 17 16 15 14 13 10 9 8 6 5 5 5 5 6 7 9 9 8 9 11 12 13 14 11 8 7 3 2 4 4 4 4 3 2 2 1 360 359 359
120 117 114 111 109 106 105 103 102 102 100 98 99 98 91 92 99 95 88 83 77 74 69 63 59 54 50 46 43 41 41 41 39 37 37 37 34 28 25 26 24 20 17 15 15 14 13 15 16 15 14 13 12 11 9 7 5 4 4 3 4 4 5 5 7 9 8 8 10 11 11 11 10 8 6 3 3 4 4 4 4 3 3 3 2 1 0 360
124 121 116 113 109 105 102 99 98 99 99 98 97 92 87 90 95 89 82 76 70 66 62 57 53 49 45 43 39 37 37 37 35 34 35 33 28 24 24 23 20 17 13 12 13 12 12 14 14 13 12 10 9 9 7 4 3 2 1 2 3 4 3 3 4 6 7 7 8 9 10 10 9 7 4 3 3 3 3 4 4 4 3 3 1 1 0 360
129 126 121 117 112 107 101 96 92 89 91 94 93 88 86 87 85 79 75 70 63 59 55 50 47 43 40 39 37 34 33 33 33 32 32 30 24 22 22 19 16 13 11 10 11 12 11 12 12 10 9 8 7 7 5 3 1 0 360 0 2 2 1 1 1 2 5 8 7 5 7 9 8 7 5 3 4 3 3 3 3 3 3 2 0 0 0 0
138 133 127 122 117 109 101 95 89 84 81 81 80 82 84 80 74 70 65 59 54 51 48 44 41 38 36 34 33 32 30 29 30 29 27 25 21 19 18 15 12 9 9 10 10 11 10 10 11 9 6 6 5 4 2 1 359 359 359 360 360 360 359 359 360 359 1 6 7 3 4 7 7 6 5 4 4 4 3 3 3 2 1 0 360 360 0 0
159 152 144 135 128 118 107 92 79 78 80 76 71 72 72 68 62 58 52 46 42 39 39 39 37 34 32 31 28 27 25 25 26 22 20 18 16 15 12 10 8 7 8 9 9 10 9 7 8 7 4 3 3 1 359 358 357 357 358 358 358 358 358 358 358 357 357 2 6 5 4 5 6 5 5 4 3 3 3 2 2 1 0 359 359 360 1 1
193 187 178 170 159 145 131 98 61 59 71 69 65 62 59 54 50 45 39 36 34 32 33 34 33 31 29 27 23 19 18 18 17 14 13 12 10 9 7 6 6 6 7 8 7 8 7 5 5 4 3 1 360 358 357 356 356 356 356 356 356 357 357 358 357 356 356 358 2 5 5 4 4 3 3 4 3 2 2 2 1 0 359 359 360 0 1 1
221 220 219 220 215 208 200 185 21 21 29 37 39 40 40 39 36 33 30 28 26 25 28 30 27 25 23 19 13 10 9 8 8 7 7 5 4 4 3 3 3 3 5 6 6 6 5 4 2 2 1 359 358 356 354 354 354 354 354 354 355 356 356 356 356 356 356 356 358 3 5 3 2 2 3 3 2 0 1 1 0 359 359 359 0 0 1 0
234 238 243 244 245 250 251 266 307 326 330 342 353 3 12 18 18 16 15 15 14 14 18 20 18 14 11 7 1 358 359 359 360 0 360 360 360 360 1 1 1 2 2 3 3 3 2 2 0 359 358 357 356 354 352 353 353 353 352 352 353 354 354 354 354 355 356 356 355 360 4 1 360 2 2 2 1 359 359 359 359 359 359 360 0 360 360 360
241 245 250 252 254 259 264 271 286 299 304 305 314 330 341 350 357 359 358 360 1 2 3 4 4 1 358 354 350 349 350 351 352 353 354 356 357 357 358 358 358 359 359 359 0 360 359 358 358 357 356 354 353 353 352 352 352 351 351 351 351 352 353 352 352 353 356 356 353 356 1 1 359 1 1 360 359 358 357 358 357 358 359 360 360 359 359 359
247 249 251 254 257 261 268 275 280 287 294 296 300 311 321 330 339 344 344 347 349 349 350 349 348 349 347 345 344 344 344 344 345 349 351 353 354 354 355 355 355 356 356 356 356 355 355 355 354 355 355 353 351 351 351 350 350 350 350 350 350 351 351 351 350 350 353 356 353 353 358 0 360 0 359 358 358 357 356 356 357 358 359 359 359 358 358 358
255 256 256 259 263 266 270 275 277 282 289 293 295 303 311 318 325 330 333 335 337 337 339 338 337 339 338 337 337 338 338 339 342 346 350 351 352 351 351 351 352 353 353 353 353 352 351 350 349 350 351 350 348 349 350 348 348 348 348 349 350 350 349 348 348 348 349 353 354 352 355 359 0 360 358 357 357 356 355 355 356 358 359 359 358 358 358 358
261 264 265 266 268 271 272 274 277 281 287 291 294 300 306 311 316 320 322 324 325 325 326 328 329 330 330 329 331 332 334 337 340 344 347 348 348 347 347 348 349 350 350 350 350 349 348 347 346 346 346 348 347 347 348 348 347 347 347 348 349 349 347 346 347 346 346 350 352 351 351 355 358 358 358 357 357 356 355 355 356 358 359 359 358 357 357 357
260 263 266 269 271 273 274 275 278 282 287 289 293 297 303 307 309 312 313 315 316 315 315 317 320 322 323 324 326 329 332 335 338 341 343 344 344 343 343 344 345 346 347 346 346 345 345 344 345 344 344 346 346 346 346 346 346 346 346 346 347 347 346 346 346 344 343 345 350 350 350 352 355 357 357 357 356 355 355 356 357 358 359 358 358 358 357 357
257 258 261 266 270 274 276 278 280 283 286 288 291 295 299 302 304 305 306 307 309 308 307 309 312 314 317 320 322 326 330 332 335 336 337 339 340 339 339 340 341 342 342 342 341 341 341 342 343 343 342 343 344 344 344 345 344 344 345 345 345 344 344 346 345 343 340 342 346 350 350 350 352 355 357 356 355 355 355 356 357 357 358 358 358 357 357 357
255 257 260 263 267 270 274 277 279 282 284 286 289 292 294 297 297 299 300 301 302 302 303 304 307 310 313 316 318 322 325 327 330 331 331 332 335 335 335 335 336 337 337 337 337 337 337 338 340 342 341 340 341 342 343 344 343 343 343 344 343 342 343 345 345 342 338 339 344 348 350 350 349 352 356 355 354 355 355 355 356 356 357 357 357 357 357 357
252 255 257 260 263 265 267 270 273 276 279 282 285 288 291 293 294 295 296 296 296 297 299 301 303 306 308 310 313 317 320 322 324 327 326 326 328 331 331 331 332 332 331 332 332 333 334 335 336 338 340 339 338 340 342 342 342 341 342 342 341 341 342 343 343 340 336 339 343 345 348 349 348 349 354 355 354 354 354 355 355 355 356 356 356 356 356 356
250 251 252 255 258 259 260 263 266 270 274 278 281 285 288 290 292 293 293 293 294 295 296 298 300 302 304 306 308 311 315 317 318 321 322 322 323 325 327 327 327 327 327 328 329 330 331 332 332 334 337 336 335 337 338 340 340 340 340 340 340 341 341 340 341 338 335 338 341 342 345 347 347 348 352 354 354 354 354 354 354 354 355 355 355 355 355 355
249 250 251 252 254 255 257 259 262 265 269 273 276 280 282 284 287 289 290 290 291 292 295 296 297 299 301 303 305 307 310 312 314 316 317 318 320 320 322 323 323 324 324 325 326 327 328 329 329 330 333 333 332 334 335 337 338 337 337 338 339 340 338 337 339 338 335 337 340 341 343 345 346 347 350 353 355 353 353 354 354 354 354 354 353 353 353 354
249 250 251 252 253 255 256 258 260 262 264 268 271 273 276 278 281 283 284 285 286 288 291 292 294 296 297 300 302 304 307 309 311 312 313 315 317 317 318 319 320 321 322 322 324 324 325 326 326 327 330 330 330 332 333 334 334 334 335 337 337 337 335 335 338 337 335 336 338 340 342 343 345 346 347 351 355 353 352 353 353 353 354 353 352 352 352 353